Location: Crab Orchard
(37.7292°N, 88.8042°W)
Time: 23:40:08
(UTC+00:00)

BREEZE-M DEB (TANK) - Pass Details

Date: 08 December 2019
Orbit: 301 x 15767 km, 49.4° (Epoch: 22 January)

Event Time Altitude Azimuth Distance (km) Brightness Sun altitude
Rises 23:11:59 0° 246° (WSW) 2,711 8.6 -7.2°
Reaches altitude 10° 23:13:20 10° 249° (WSW) 2,123 7.1 -7.4°
Maximum altitude 23:17:44 71° 334° (NNW) 1,334 4.3 -8.2°
Enters shadow 23:35:47 11° 58° (ENE) 7,952 7.5 -11.6°
